Weather History for Anchorage, AK

Change the Weather History Date:

Thursday, February 2, 2012

  Actual Average Record
Temperature  
Mean Temperature 34 °F 18 °F  
Max Temperature 38 °F 24 °F 48 °F (2007)
Min Temperature 30 °F 12 °F -33 °F (1947)
Degree Days  
Heating Degree Days 31    
Month to date heating degree days 70  
Since 1 July heating degree days 6678  
Cooling Degree Days 0    
Month to date cooling degree days 0  
Year to date cooling degree days 0  
Moisture  
Dew Point 28 °F    
Average Humidity 76    
Maximum Humidity 92    
Minimum Humidity 59    
Precipitation  
Precipitation 0.04 in 0.03 in 0.33 in (1923)
Month to date precipitation 0.21 0.06  
Year to date precipitation 1.52 0.79  
Snow  
Snow 0.50 in 0.50 in 3.00 in (1979)
Month to date snowfall 1.8 0.9  
Since 1 July snowfall 93.9 50.3  
Snow Depth 26.00 in    
Sea Level Pressure  
Sea Level Pressure 29.03 in    
Wind  
Wind Speed 15 mph (SSE)    
Max Wind Speed 21 mph    
Max Gust Speed 36 mph    
Visibility 9 miles    
Events Rain , Snow    
T = Trace of Precipitation, MM = Missing Value Source: NWS Daily Summary

Daily Weather History Graph

Daily Weather History Graph

Search for Another Location

Airport:

Trip Planner

Search our weather history database for the weather conditions in past years. The results will help you decide how hot, cold, wet, or windy it might be!

Date:

Astronomy

Feb. 02, 2012 Rise Set
Actual Time 9:18 AM AKST 5:09 PM AKST
Civil Twilight 8:29 AM AKST 5:59 PM AKST
Nautical Twilight 7:36 AM AKST 6:52 PM AKST
Astronomical Twilight 6:46 AM AKST 7:42 PM AKST
Moon 11:44 AM AKST (2/2) 5:53 AM AKST (2/2)
Length of Visible Light 9h 30m
Length of Day
7h 51m
Waxing Gibbous, 75% of the Moon is Illuminated
Feb 2
Waxing Gibbous
Feb 7
Full
Feb 14
Last Quarter
Feb 21
New
Feb 29
First Quarter

Hourly Weather History & Observations

Time (AKST) Temp. Windchill Dew Point Humidity Pressure Visibility Wind Dir Wind Speed Gust Speed Precip Events Conditions
12:53 AM 28.9 °F 23.9 °F 26.1 °F 89% 28.67 in 10.0 mi NNW 4.6 mph - N/A   Mostly Cloudy
1:53 AM 36.0 °F 25.0 °F 30.9 °F 82% 28.68 in 10.0 mi SSE 20.7 mph 33.4 mph N/A   Mostly Cloudy
2:53 AM 37.0 °F 28.1 °F 30.0 °F 76% 28.73 in 10.0 mi SSE 15.0 mph 25.3 mph 0.01 in   Mostly Cloudy
3:53 AM 37.0 °F 27.0 °F 28.9 °F 73% 28.77 in 10.0 mi SE 18.4 mph 27.6 mph N/A   Clear
4:53 AM 37.0 °F 27.4 °F 28.0 °F 70% 28.81 in 10.0 mi SSE 17.3 mph 26.5 mph N/A   Mostly Cloudy
5:53 AM 37.9 °F 28.5 °F 25.0 °F 60% 28.86 in 10.0 mi SE 17.3 mph 25.3 mph N/A   Mostly Cloudy
6:53 AM 37.0 °F 27.0 °F 27.0 °F 67% 28.91 in 10.0 mi SE 18.4 mph 33.4 mph N/A   Mostly Cloudy
7:53 AM 37.0 °F 26.4 °F 26.1 °F 65% 28.96 in 10.0 mi SSE 20.7 mph 31.1 mph N/A   Mostly Cloudy
8:53 AM 34.0 °F 24.6 °F 28.9 °F 82% 28.98 in 10.0 mi SSE 13.8 mph 19.6 mph N/A   Mostly Cloudy
9:17 AM 35.6 °F 25.5 °F 30.2 °F 81% 29.03 in 0.8 mi SSE 17.3 mph 33.4 mph 0.00 in Rain , Snow Light Snow
9:42 AM 33.8 °F 24.8 °F 30.2 °F 87% 29.04 in 1.0 mi SSE 12.7 mph 21.9 mph 0.03 in Rain , Snow Light Snow
9:53 AM 34.0 °F 24.2 °F 30.9 °F 89% 29.04 in 1.0 mi SE 15.0 mph 23.0 mph 0.03 in Rain , Snow Light Snow
10:12 AM 33.8 °F 23.5 °F 30.2 °F 87% 29.03 in 10.0 mi SSE 16.1 mph 25.3 mph 0.01 in   Mostly Cloudy
10:53 AM 34.0 °F 28.8 °F 28.0 °F 79% 29.06 in 10.0 mi Variable 5.8 mph - 0.01 in   Mostly Cloudy
11:53 AM 36.0 °F 26.3 °F 28.9 °F 76% 29.07 in 10.0 mi SSE 16.1 mph 26.5 mph N/A   Mostly Cloudy
12:53 PM 37.0 °F 26.7 °F 28.9 °F 73% 29.10 in 10.0 mi SSE 19.6 mph 28.8 mph N/A   Overcast
1:53 PM 37.0 °F 28.9 °F 25.0 °F 62% 29.12 in 10.0 mi SSE 12.7 mph 23.0 mph N/A   Overcast
2:53 PM 37.0 °F 28.1 °F 26.1 °F 65% 29.13 in 10.0 mi SSE 15.0 mph 27.6 mph N/A   Overcast
3:53 PM 36.0 °F 26.7 °F 27.0 °F 70% 29.15 in 10.0 mi SSE 15.0 mph 24.2 mph N/A   Overcast
4:53 PM 35.1 °F 26.4 °F 27.0 °F 72% 29.18 in 10.0 mi SSE 12.7 mph 21.9 mph N/A   Overcast
5:53 PM 35.1 °F 25.2 °F 27.0 °F 72% 29.18 in 10.0 mi SSE 16.1 mph 23.0 mph N/A   Mostly Cloudy
6:53 PM 35.1 °F 24.8 °F 28.0 °F 76% 29.19 in 10.0 mi SSE 17.3 mph 24.2 mph N/A   Mostly Cloudy
7:53 PM 35.1 °F 25.5 °F 27.0 °F 72% 29.20 in 10.0 mi SSE 15.0 mph 24.2 mph N/A   Mostly Cloudy
8:53 PM 35.1 °F 25.9 °F 28.0 °F 76% 29.19 in 10.0 mi SSE 13.8 mph 26.5 mph N/A   Mostly Cloudy
9:53 PM 34.0 °F 25.5 °F 27.0 °F 75% 29.20 in 10.0 mi SSE 11.5 mph 19.6 mph N/A   Mostly Cloudy
10:53 PM 33.1 °F 24.9 °F 26.1 °F 75% 29.19 in 10.0 mi SSW 10.4 mph - N/A   Scattered Clouds
11:46 PM 26.6 °F 16.2 °F 24.8 °F 93% 29.19 in 10.0 mi WNW 11.5 mph - N/A   Mostly Cloudy
11:53 PM 28.0 °F 20.8 °F 24.1 °F 85% 29.20 in 10.0 mi West 6.9 mph - N/A   Mostly Cloudy